Location: Ariel
(45.9570°N, 122.5700°W)
Time: 16:43:35
(UTC-07:00)

A-11 Canister half - Pass Details

Date: 03 September 2019
Orbit: 1514 x 1686 km, 47.2° (Epoch: 18 October)

Event Time Altitude Azimuth Distance (km) Brightness Sun altitude
Rises 20:31:02 0° 287° (WNW) 4,696 14.1 -8.5°
Reaches altitude 10° 20:34:03 10° 286° (WNW) 3,729 12.7 -9.0°
Maximum altitude 20:43:29 77° 203° (SSW) 1,620 9.1 -10.6°
Enters shadow 20:52:11 14° 120° (ESE) 3,517 10.2 -12.0°
